Location: Sungai Anya
(2.6167°N, 114.0500°E)
Time: 10:48:44
(UTC+00:00)

PAYLOAD B - Pass Details

Date: 19 October 2021
Orbit: 849 x 871 km, 99.1° (Epoch: 28 November)

Event Time Altitude Azimuth Distance (km) Brightness Sun altitude
Rises 10:47:25 0° 171° (S) 3,410 7.4 -10.0°
Reaches altitude 10° 10:49:47 10° 173° (S) 2,473 6.7 -10.6°
Maximum altitude 10:55:16 74° 257° (WSW) 886 4.5 -11.9°
Drops below altitude 10° 11:00:44 10° 342° (NNW) 2,473 6.7 -13.2°
Sets 11:03:06 0° 344° (NNW) 3,410 7.4 -13.8°
